AirNav   Pilot Hours Calculator
 
 457 users online  

MU27 Woodfield Airpark Inc
Lockwood, Missouri, USA

GOING TO LOCKWOOD?


FAA INFORMATION EFFECTIVE 23 MAY 2019

Location

FAA Identifier: MU27
Lat/Long: 37-28-05.1650N / 093-55-45.7740W
37-28.086083N / 093-55.762900W
37.4681014 / -93.9293817
(estimated)
Elevation: 1050 ft. / 320 m (estimated)
Variation: 05E (1985)
From city: 4 miles NE of LOCKWOOD, MO
Time zone: UTC -5 (UTC -6 during Standard Time)
Zip code: 65682

Airport Operations

Airport use: Private use. Permission required prior to landing
Activation date: 06/1981
Control tower: no
ARTCC: KANSAS CITY CENTER
FSS: COLUMBIA FLIGHT SERVICE STATION
Attendance: CONTINUOUS
Wind indicator: yes
Segmented circle: no

Nearby radio navigation aids

VOR radial/distance  VOR name  Freq  Var
SGFr279/29.2SPRINGFIELD VORTAC116.9004E

Airport Services

Runway Information

Runway E/W

Dimensions: 2600 x 120 ft. / 792 x 37 m
Surface: turf
RUNWAY E  RUNWAY W
Traffic pattern: leftleft

Runway NE/SW

Dimensions: 1700 x 120 ft. / 518 x 37 m
Surface: turf
RUNWAY NE  RUNWAY SW
Traffic pattern: leftleft

Airport Ownership and Management from official FAA records

Ownership: Privately-owned
Owner: WOODFIELD AIRPORT OWNERS LLC
22 WOODFIELD LN
GREENFIELD, MO 65661
Phone (253) 820-4967
Manager: DAVID KRAHN
22 WOODFIELD LN
GREENFIELD, MO 65661
Phone (253) 820-4967

Airport Operational Statistics

Aircraft based on the field: 2
Single engine airplanes: 2
    

Instrument Procedures

There are no published instrument procedures at MU27.

Some nearby airports with instrument procedures:

MO3 - Stockton Municipal Airport (13 nm NE)
KLLU - Lamar Municipal Airport (18 nm W)
M17 - Bolivar Municipal Airport (29 nm E)
KSGF - Springfield-Branson National Airport (29 nm SE)
KNVD - Nevada Municipal Airport (29 nm NW)
 
Loc | Ops | Rwys | IFR | FBO | Links
Com | Nav | Svcs | Stats | Notes

Kansas City Aviation Department
 
Area around MU27 (Woodfield Airpark Inc)
 
Road maps at: MapQuest Bing Google
 
Aerial photo
No photo
 
Sectional chart

 
Airport distance calculator
Flying to Woodfield Airpark Inc? Find the distance to fly.

From to MU27

Sunrise and sunset
Times for 25-May-2019
 Local
(UTC-5)
 Zulu
(UTC)
Morning civil twilight05:3010:30
Sunrise06:0111:01
Sunset20:2501:25
Evening civil twilight20:5501:55

Current date and time
Zulu (UTC)  25-May-2019 11:11:13
Local (UTC-5)  25-May-2019 06:11:13
 
METAR
KSGF 
30nm SE 
251052Z 13005KT 10SM CLR 18/17 A3000 RMK AO2 RAE10 SLP146 P0000 T01830167
KJLN 
33nm SW 
251053Z 17006KT 10SM CLR 17/17 A3000 RMK AO2 SLP149 T01720167
KHFJ 
34nm S 
251055Z AUTO 00000KT 10SM CLR 17/17 A3002 RMK AO2
KPTS 
38nm W 
251055Z AUTO 18006KT 10SM CLR 18/17 A2998 RMK AO2 T01760172
KEOS 
45nm SW 
SuperAWOS
251035Z AUTO 00000KT 10SM 17/17 A3002
TAF
KSGF 
30nm SE 
250536Z 2506/2606 29010G15KT P6SM -SHRA BKN050 OVC250 FM250700 VRB05KT P6SM OVC250 FM250900 18012KT P6SM OVC200 FM251700 21013G21KT P6SM BKN200 FM252200 20013KT P6SM SCT250 FM260300 17008KT P6SM BKN250
KJLN 
33nm SW 
250538Z 2506/2606 VRB04KT 6SM TSRA BR SCT040 BKN070CB OVC100 FM250700 18011KT P6SM VCSH BKN070 OVC150 FM251000 19011KT P6SM OVC150 FM251400 20013G21KT P6SM OVC150 FM260300 17007KT P6SM BKN250
NOTAMs
Click for the latest NOTAMs
NOTAMs are issued by the DoD/FAA and will open in a separate window not controlled by AirNav.

 

 
 

Would you like to see your business listed on this page?

 If your business provides an interesting product or service to pilots, flight crews, aircraft, or users of the Woodfield Airpark Inc, you should consider listing it here.  To start the listing process, click on the button below
 
Add a business
 

Other Pages about Woodfield Airpark Inc

Update a link
 
Copyright © AirNav, LLC. All rights reserved. Privacy Policy  Contact